Celebrity Galaxy — 9HJH9 — position and weather

sailwx.info

Track history (hours):
 
Tides and Currents Weather Stations Pressure Air Temp Water Temp Dewpoint Dewpoint Depression Visibility Wind Speed Wind Dir Waves Ship Positions

Celebrity Galaxy

Last reported at 2017-Jun-29 01:49 UTC. Time now 2017-Jun-29 02:02 UTC.
Position N 64°05' E 007°42'.

Length 262 m; draft 8.5 m.

Type: Passenger vessel. MMSI: 249051000.

Date/timePositionNaut miles runAvg speedWind from/ knotsBaromVisibWave heightAir tempDewpointWater temp
2017-Jun-29 01:49N 64°05' E 007°42'719.3
2017-Jun-29 01:27N 63°59' E 007°34'3619.0
2017-Jun-28 23:35N 63°29' E 006°49'219.1
2017-Jun-28 23:29N 63°28' E 006°47'3219.3
2017-Jun-28 21:49N 63°01' E 006°08'619.4
2017-Jun-28 21:30N 62°55' E 006°00'919.0
2017-Jun-28 21:00N 62°47' E 005°49'918.7
2017-Jun-28 20:30N 62°40' E 005°37'817.1
2017-Jun-28 20:00N 62°31' E 005°40'1019.7
2017-Jun-28 19:30N 62°27' E 005°59'816.2
2017-Jun-28 19:00N 62°23' E 006°14'1020.0
2017-Jun-28 18:30N 62°26' E 006°35'918.3
2017-Jun-28 18:00N 62°25' E 006°55'917.7
2017-Jun-28 17:30N 62°17' E 007°01'918.3
2017-Jun-28 17:00N 62°08' E 006°58'2 1.0
2017-Jun-28 15:26N 62°07' E 006°56'410.3
2017-Jun-28 15:00N 62°06' E 007°06'3 2.9
2017-Jun-28 13:59N 62°06' E 007°12'0 0.0
2017-Jun-28 13:29N 62°06' E 007°12'0 0.0
2017-Jun-28 12:59N 62°06' E 007°12'0 0.0
2017-Jun-28 12:26N 62°06' E 007°12'0 0.0
2017-Jun-28 11:59N 62°06' E 007°12'0 0.0
2017-Jun-28 11:29N 62°06' E 007°12'0 0.0
2017-Jun-28 10:59N 62°06' E 007°12'0 0.0
2017-Jun-28 10:29N 62°06' E 007°12'0 0.0
2017-Jun-28 09:59N 62°06' E 007°12'0 0.0
2017-Jun-28 09:29N 62°06' E 007°12'0 0.0
2017-Jun-28 08:58N 62°06' E 007°12'0 0.0
2017-Jun-28 08:28N 62°06' E 007°12'0 0.0
2017-Jun-28 07:58N 62°06' E 007°12'0 0.0
2017-Jun-28 07:28N 62°06' E 007°12'0 0.0
2017-Jun-28 07:00N 62°06' E 007°12'0 0.0
2017-Jun-28 06:28N 62°06' E 007°12'0 0.0
2017-Jun-28 06:00N 62°06' E 007°12'0 0.0
2017-Jun-28 05:30N 62°06' E 007°12'0 0.9
2017-Jun-28 05:00N 62°07' E 007°11'4 7.9
2017-Jun-28 04:30N 62°05' E 007°03'4 8.6
2017-Jun-28 04:00N 62°09' E 006°60'816.8
2017-Jun-28 03:30N 62°18' E 007°00'816.4
2017-Jun-28 03:00N 62°26' E 006°54'816.4
2017-Jun-28 02:31N 62°27' E 006°37'916.9
2017-Jun-28 02:00N 62°24' E 006°20'815.7
2017-Jun-28 01:30N 62°24' E 006°03'612.8
2017-Jun-28 01:00N 62°28' E 005°51'714.7
2017-Jun-28 00:30N 62°30' E 005°36'918.2
2017-Jun-28 00:00N 62°25' E 005°19'918.8
2017-Jun-27 23:30N 62°20' E 005°02'918.7
2017-Jun-27 23:00N 62°15' E 004°45'918.7
2017-Jun-27 22:30N 62°09' E 004°29'6418.1
2017-Jun-27 18:59N 61°06' E 004°15'918.8
2017-Jun-27 18:30N 60°57' E 004°19'917.8
2017-Jun-27 18:00N 60°49' E 004°25'1019.3
2017-Jun-27 17:30N 60°44' E 004°43'612.7
2017-Jun-27 17:00N 60°40' E 004°51'918.6
2017-Jun-27 16:30N 60°31' E 004°58'815.3
2017-Jun-27 16:00N 60°24' E 005°06'4 8.4
2017-Jun-27 15:30N 60°24' E 005°15'2 4.1
2017-Jun-27 14:59N 60°23' E 005°19'0 0.0
2017-Jun-27 13:58N 60°23' E 005°19'0 0.0
2017-Jun-27 13:28N 60°23' E 005°19'0 0.0
2017-Jun-27 12:58N 60°23' E 005°19'0 0.0
2017-Jun-27 12:28N 60°23' E 005°19'0 0.0
2017-Jun-27 11:58N 60°23' E 005°19'0 0.0
2017-Jun-27 11:30N 60°23' E 005°19'0 0.0
2017-Jun-27 11:00N 60°23' E 005°19'0 0.0
2017-Jun-27 10:30N 60°23' E 005°19'0 0.0
2017-Jun-27 09:59N 60°23' E 005°19'0 0.0
2017-Jun-27 09:30N 60°23' E 005°19'0 0.0
2017-Jun-27 09:00N 60°23' E 005°19'0 0.0
2017-Jun-27 08:30N 60°23' E 005°19'0 0.0
2017-Jun-27 08:00N 60°23' E 005°19'0 0.0
2017-Jun-27 07:30N 60°23' E 005°19'0 0.0
2017-Jun-27 07:00N 60°23' E 005°19'0 0.0
2017-Jun-27 06:30N 60°23' E 005°19'0 0.0
2017-Jun-27 06:00N 60°23' E 005°19'0 0.3
2017-Jun-27 05:30N 60°23' E 005°18'3 6.0
2017-Jun-27 05:00N 60°23' E 005°12'4 8.4
2017-Jun-27 04:30N 60°25' E 005°04'510.7
2017-Jun-27 04:00N 60°30' E 004°59'917.4
2017-Jun-27 03:30N 60°38' E 004°52'714.2
2017-Jun-27 03:00N 60°44' E 004°45'611.9
2017-Jun-27 02:30N 60°41' E 004°33'816.4
2017-Jun-27 02:00N 60°34' E 004°26'10216.0
2017-Jun-26 19:38N 58°52' E 004°20'315.9
2017-Jun-26 19:25N 58°49' E 004°21'1015.9
2017-Jun-26 18:47N 58°39' E 004°27'415.9
2017-Jun-26 18:30N 58°35' E 004°29'915.7
2017-Jun-26 17:56N 58°27' E 004°35'19017.2
2017-Jun-26 06:51N 55°27' E 006°29'617.7
2017-Jun-26 06:30N 55°21' E 006°33'917.8
2017-Jun-26 06:00N 55°13' E 006°38'917.9
2017-Jun-26 05:30N 55°04' E 006°43'918.0
2017-Jun-26 05:00N 54°56' E 006°51'918.2
2017-Jun-26 04:30N 54°49' E 007°00'918.6
2017-Jun-26 04:00N 54°41' E 007°09'918.5
2017-Jun-26 03:30N 54°33' E 007°18'4018.4
2017-Jun-26 01:21N 54°03' E 008°01'617.3
2017-Jun-26 00:59N 54°01' E 008°11'714.4
2017-Jun-26 00:30N 53°59' E 008°23'816.6
2017-Jun-26 00:00N 53°58' E 008°36'714.0
2017-Jun-25 23:30N 53°52' E 008°44'713.9
2017-Jun-25 23:01N 53°51' E 008°55'714.8
2017-Jun-25 22:30N 53°53' E 009°07'611.7
2017-Jun-25 22:01N 53°52' E 009°17'815.1
2017-Jun-25 21:30N 53°46' E 009°24'612.6
2017-Jun-25 21:00N 53°41' E 009°30'611.3
2017-Jun-25 20:31N 53°36' E 009°36'612.1
2017-Jun-25 20:00N 53°34' E 009°45'510.5
2017-Jun-25 19:30N 53°32' E 009°54'2 4.5
2017-Jun-25 18:59N 53°32' E 009°58'0 0.0
2017-Jun-25 18:29N 53°32' E 009°58'0 0.0
2017-Jun-25 17:59N 53°32' E 009°58'0 0.0
2017-Jun-25 17:29N 53°32' E 009°58'0 0.0
2017-Jun-25 16:59N 53°32' E 009°58'0 0.0
2017-Jun-25 16:29N 53°32' E 009°58'0 0.0
2017-Jun-25 15:59N 53°32' E 009°58'0 0.0
2017-Jun-25 15:29N 53°32' E 009°58'0 0.0
2017-Jun-25 14:59N 53°32' E 009°58'0 0.0
2017-Jun-25 14:29N 53°32' E 009°58'0 0.0
2017-Jun-25 13:29N 53°32' E 009°58'0 0.0
2017-Jun-25 12:59N 53°32' E 009°58'0 0.0
2017-Jun-25 12:29N 53°32' E 009°58'0 0.0
2017-Jun-25 11:59N 53°32' E 009°58'0 0.0
2017-Jun-25 11:29N 53°32' E 009°58'0 0.0
2017-Jun-25 10:59N 53°32' E 009°58'0 0.0
2017-Jun-25 10:29N 53°32' E 009°58'0 0.0
2017-Jun-25 09:59N 53°32' E 009°58'0 0.0
2017-Jun-25 09:29N 53°32' E 009°58'0 0.0
2017-Jun-25 08:59N 53°32' E 009°58'0 0.0
2017-Jun-25 08:29N 53°32' E 009°58'0 0.0
2017-Jun-25 07:59N 53°32' E 009°58'0 0.0
2017-Jun-25 07:29N 53°32' E 009°58'0 0.0
2017-Jun-25 06:59N 53°32' E 009°58'0 0.0
2017-Jun-25 06:29N 53°32' E 009°58'0 0.0
2017-Jun-25 05:59N 53°32' E 009°58'0 0.0
2017-Jun-25 05:29N 53°32' E 009°58'0 0.0
2017-Jun-25 04:59N 53°32' E 009°58'0 0.0
2017-Jun-25 04:29N 53°32' E 009°58'0 0.1
2017-Jun-25 04:00N 53°32' E 009°58'1 1.5
2017-Jun-25 03:31N 53°32' E 009°57'4 7.1
2017-Jun-25 03:00N 53°33' E 009°51'5 9.9
2017-Jun-25 02:30N 53°34' E 009°43'713.6
2017-Jun-25 02:00N 53°37' E 009°33'713.2
2017-Jun-25 01:30N 53°43' E 009°28'714.9
2017-Jun-25 01:00N 53°50' E 009°22'815.4
2017-Jun-25 00:30N 53°53' E 009°10'713.8
2017-Jun-25 00:00N 53°51' E 008°58'815.0
2017-Jun-24 23:30N 53°51' E 008°46'611.1
2017-Jun-24 23:00N 53°55' E 008°40'917.4
2017-Jun-24 22:30N 53°59' E 008°26'816.2
2017-Jun-24 22:00N 53°59' E 008°13'714.0
2017-Jun-24 21:30N 54°00' E 008°01'714.9
2017-Jun-24 21:00N 54°04' E 007°50'44116.7
2017-Jun-23 18:32N 58°50' W 002°18'019.2
2017-Jun-23 18:30N 58°51' W 002°18'1119.3
2017-Jun-23 17:56N 58°58' W 002°34'819.2
2017-Jun-23 17:30N 59°00' W 002°49'5 9.3
2017-Jun-23 17:00N 59°00' W 002°58'0 0.4
2017-Jun-23 16:29N 59°00' W 002°59'0 0.0
2017-Jun-23 15:59N 59°00' W 002°59'0 0.0
2017-Jun-23 15:29N 59°00' W 002°59'0 0.0
2017-Jun-23 14:59N 59°00' W 002°59'0 0.0
2017-Jun-23 13:59N 59°00' W 002°59'0 0.0
2017-Jun-23 13:29N 59°00' W 002°59'0 0.0
2017-Jun-23 12:59N 59°00' W 002°59'0 0.0
2017-Jun-23 12:29N 59°00' W 002°59'0 0.0
2017-Jun-23 11:59N 59°00' W 002°59'0 0.0
2017-Jun-23 11:29N 59°00' W 002°59'0 0.0
2017-Jun-23 10:59N 59°00' W 002°59'0 0.0
2017-Jun-23 10:29N 59°00' W 002°59'0 0.0
2017-Jun-23 09:59N 59°00' W 002°59'0 0.0
2017-Jun-23 09:29N 59°00' W 002°59'0 0.0
2017-Jun-23 08:59N 59°00' W 002°59'0 0.0
2017-Jun-23 08:29N 59°00' W 002°59'0 0.0
2017-Jun-23 07:59N 59°00' W 002°59'0 0.0
2017-Jun-23 07:29N 59°00' W 002°59'0 0.0
2017-Jun-23 06:56N 59°00' W 002°59'0 0.0
2017-Jun-23 06:29N 59°00' W 002°59'0 0.0
2017-Jun-23 05:59N 59°00' W 002°59'1 2.3
2017-Jun-23 05:30N 59°01' W 002°57'5 9.0
2017-Jun-23 05:00N 59°00' W 002°48'4 8.7
2017-Jun-23 04:30N 59°04' W 002°45'713.9
2017-Jun-23 04:00N 59°10' W 002°52'815.8
2017-Jun-23 03:30N 59°15' W 003°05'916.2
2017-Jun-23 02:57N 59°22' W 003°15'816.7
2017-Jun-23 02:30N 59°28' W 003°24'  
Track history (hours):
 
Tides and Currents Weather Stations Pressure Air Temp Water Temp Dewpoint Dewpoint Depression Visibility Wind Speed Wind Dir Waves Ship Positions

Celebrity Galaxy

Last reported at 2017-Jun-29 01:49 UTC. Time now 2017-Jun-29 02:02 UTC.
Position N 64°05' E 007°42'.

Length 262 m; draft 8.5 m.

Type: Passenger vessel. MMSI: 249051000.

Date/timePositionNaut miles runAvg speedWind from/ knotsBaromVisibWave heightAir tempDewpointWater temp
2017-Jun-29 01:49N 64°05' E 007°42'719.3
2017-Jun-29 01:27N 63°59' E 007°34'3619.0
2017-Jun-28 23:35N 63°29' E 006°49'219.1
2017-Jun-28 23:29N 63°28' E 006°47'3219.3
2017-Jun-28 21:49N 63°01' E 006°08'619.4
2017-Jun-28 21:30N 62°55' E 006°00'919.0
2017-Jun-28 21:00N 62°47' E 005°49'918.7
2017-Jun-28 20:30N 62°40' E 005°37'817.1
2017-Jun-28 20:00N 62°31' E 005°40'1019.7
2017-Jun-28 19:30N 62°27' E 005°59'816.2
2017-Jun-28 19:00N 62°23' E 006°14'1020.0
2017-Jun-28 18:30N 62°26' E 006°35'918.3
2017-Jun-28 18:00N 62°25' E 006°55'917.7
2017-Jun-28 17:30N 62°17' E 007°01'918.3
2017-Jun-28 17:00N 62°08' E 006°58'2 1.0
2017-Jun-28 15:26N 62°07' E 006°56'410.3
2017-Jun-28 15:00N 62°06' E 007°06'3 2.9
2017-Jun-28 13:59N 62°06' E 007°12'0 0.0
2017-Jun-28 13:29N 62°06' E 007°12'0 0.0
2017-Jun-28 12:59N 62°06' E 007°12'0 0.0
2017-Jun-28 12:26N 62°06' E 007°12'0 0.0
2017-Jun-28 11:59N 62°06' E 007°12'0 0.0
2017-Jun-28 11:29N 62°06' E 007°12'0 0.0
2017-Jun-28 10:59N 62°06' E 007°12'0 0.0
2017-Jun-28 10:29N 62°06' E 007°12'0 0.0
2017-Jun-28 09:59N 62°06' E 007°12'0 0.0
2017-Jun-28 09:29N 62°06' E 007°12'0 0.0
2017-Jun-28 08:58N 62°06' E 007°12'0 0.0
2017-Jun-28 08:28N 62°06' E 007°12'0 0.0
2017-Jun-28 07:58N 62°06' E 007°12'0 0.0
2017-Jun-28 07:28N 62°06' E 007°12'0 0.0
2017-Jun-28 07:00N 62°06' E 007°12'0 0.0
2017-Jun-28 06:28N 62°06' E 007°12'0 0.0
2017-Jun-28 06:00N 62°06' E 007°12'0 0.0
2017-Jun-28 05:30N 62°06' E 007°12'0 0.9
2017-Jun-28 05:00N 62°07' E 007°11'4 7.9
2017-Jun-28 04:30N 62°05' E 007°03'4 8.6
2017-Jun-28 04:00N 62°09' E 006°60'816.8
2017-Jun-28 03:30N 62°18' E 007°00'816.4
2017-Jun-28 03:00N 62°26' E 006°54'816.4
2017-Jun-28 02:31N 62°27' E 006°37'916.9
2017-Jun-28 02:00N 62°24' E 006°20'815.7
2017-Jun-28 01:30N 62°24' E 006°03'612.8
2017-Jun-28 01:00N 62°28' E 005°51'714.7
2017-Jun-28 00:30N 62°30' E 005°36'918.2
2017-Jun-28 00:00N 62°25' E 005°19'918.8
2017-Jun-27 23:30N 62°20' E 005°02'918.7
2017-Jun-27 23:00N 62°15' E 004°45'918.7
2017-Jun-27 22:30N 62°09' E 004°29'6418.1
2017-Jun-27 18:59N 61°06' E 004°15'918.8
2017-Jun-27 18:30N 60°57' E 004°19'917.8
2017-Jun-27 18:00N 60°49' E 004°25'1019.3
2017-Jun-27 17:30N 60°44' E 004°43'612.7
2017-Jun-27 17:00N 60°40' E 004°51'918.6
2017-Jun-27 16:30N 60°31' E 004°58'815.3
2017-Jun-27 16:00N 60°24' E 005°06'4 8.4
2017-Jun-27 15:30N 60°24' E 005°15'2 4.1
2017-Jun-27 14:59N 60°23' E 005°19'0 0.0
2017-Jun-27 13:58N 60°23' E 005°19'0 0.0
2017-Jun-27 13:28N 60°23' E 005°19'0 0.0
2017-Jun-27 12:58N 60°23' E 005°19'0 0.0
2017-Jun-27 12:28N 60°23' E 005°19'0 0.0
2017-Jun-27 11:58N 60°23' E 005°19'0 0.0
2017-Jun-27 11:30N 60°23' E 005°19'0 0.0
2017-Jun-27 11:00N 60°23' E 005°19'0 0.0
2017-Jun-27 10:30N 60°23' E 005°19'0 0.0
2017-Jun-27 09:59N 60°23' E 005°19'0 0.0
2017-Jun-27 09:30N 60°23' E 005°19'0 0.0
2017-Jun-27 09:00N 60°23' E 005°19'0 0.0
2017-Jun-27 08:30N 60°23' E 005°19'0 0.0
2017-Jun-27 08:00N 60°23' E 005°19'0 0.0
2017-Jun-27 07:30N 60°23' E 005°19'0 0.0
2017-Jun-27 07:00N 60°23' E 005°19'0 0.0
2017-Jun-27 06:30N 60°23' E 005°19'0 0.0
2017-Jun-27 06:00N 60°23' E 005°19'0 0.3
2017-Jun-27 05:30N 60°23' E 005°18'3 6.0
2017-Jun-27 05:00N 60°23' E 005°12'4 8.4
2017-Jun-27 04:30N 60°25' E 005°04'510.7
2017-Jun-27 04:00N 60°30' E 004°59'917.4
2017-Jun-27 03:30N 60°38' E 004°52'714.2
2017-Jun-27 03:00N 60°44' E 004°45'611.9
2017-Jun-27 02:30N 60°41' E 004°33'816.4
2017-Jun-27 02:00N 60°34' E 004°26'10216.0
2017-Jun-26 19:38N 58°52' E 004°20'315.9
2017-Jun-26 19:25N 58°49' E 004°21'1015.9
2017-Jun-26 18:47N 58°39' E 004°27'415.9
2017-Jun-26 18:30N 58°35' E 004°29'915.7
2017-Jun-26 17:56N 58°27' E 004°35'19017.2
2017-Jun-26 06:51N 55°27' E 006°29'617.7
2017-Jun-26 06:30N 55°21' E 006°33'917.8
2017-Jun-26 06:00N 55°13' E 006°38'917.9
2017-Jun-26 05:30N 55°04' E 006°43'918.0
2017-Jun-26 05:00N 54°56' E 006°51'918.2
2017-Jun-26 04:30N 54°49' E 007°00'918.6
2017-Jun-26 04:00N 54°41' E 007°09'918.5
2017-Jun-26 03:30N 54°33' E 007°18'4018.4
2017-Jun-26 01:21N 54°03' E 008°01'617.3
2017-Jun-26 00:59N 54°01' E 008°11'714.4
2017-Jun-26 00:30N 53°59' E 008°23'816.6
2017-Jun-26 00:00N 53°58' E 008°36'714.0
2017-Jun-25 23:30N 53°52' E 008°44'713.9
2017-Jun-25 23:01N 53°51' E 008°55'714.8
2017-Jun-25 22:30N 53°53' E 009°07'611.7
2017-Jun-25 22:01N 53°52' E 009°17'815.1
2017-Jun-25 21:30N 53°46' E 009°24'612.6
2017-Jun-25 21:00N 53°41' E 009°30'611.3
2017-Jun-25 20:31N 53°36' E 009°36'612.1
2017-Jun-25 20:00N 53°34' E 009°45'510.5
2017-Jun-25 19:30N 53°32' E 009°54'2 4.5
2017-Jun-25 18:59N 53°32' E 009°58'0 0.0
2017-Jun-25 18:29N 53°32' E 009°58'0 0.0
2017-Jun-25 17:59N 53°32' E 009°58'0 0.0
2017-Jun-25 17:29N 53°32' E 009°58'0 0.0
2017-Jun-25 16:59N 53°32' E 009°58'0 0.0
2017-Jun-25 16:29N 53°32' E 009°58'0 0.0
2017-Jun-25 15:59N 53°32' E 009°58'0 0.0
2017-Jun-25 15:29N 53°32' E 009°58'0 0.0
2017-Jun-25 14:59N 53°32' E 009°58'0 0.0
2017-Jun-25 14:29N 53°32' E 009°58'0 0.0
2017-Jun-25 13:29N 53°32' E 009°58'0 0.0
2017-Jun-25 12:59N 53°32' E 009°58'0 0.0
2017-Jun-25 12:29N 53°32' E 009°58'0 0.0
2017-Jun-25 11:59N 53°32' E 009°58'0 0.0
2017-Jun-25 11:29N 53°32' E 009°58'0 0.0
2017-Jun-25 10:59N 53°32' E 009°58'0 0.0
2017-Jun-25 10:29N 53°32' E 009°58'0 0.0
2017-Jun-25 09:59N 53°32' E 009°58'0 0.0
2017-Jun-25 09:29N 53°32' E 009°58'0 0.0
2017-Jun-25 08:59N 53°32' E 009°58'0 0.0
2017-Jun-25 08:29N 53°32' E 009°58'0 0.0
2017-Jun-25 07:59N 53°32' E 009°58'0 0.0
2017-Jun-25 07:29N 53°32' E 009°58'0 0.0
2017-Jun-25 06:59N 53°32' E 009°58'0 0.0
2017-Jun-25 06:29N 53°32' E 009°58'0 0.0
2017-Jun-25 05:59N 53°32' E 009°58'0 0.0
2017-Jun-25 05:29N 53°32' E 009°58'0 0.0
2017-Jun-25 04:59N 53°32' E 009°58'0 0.0
2017-Jun-25 04:29N 53°32' E 009°58'0 0.1
2017-Jun-25 04:00N 53°32' E 009°58'1 1.5
2017-Jun-25 03:31N 53°32' E 009°57'4 7.1
2017-Jun-25 03:00N 53°33' E 009°51'5 9.9
2017-Jun-25 02:30N 53°34' E 009°43'713.6
2017-Jun-25 02:00N 53°37' E 009°33'713.2
2017-Jun-25 01:30N 53°43' E 009°28'714.9
2017-Jun-25 01:00N 53°50' E 009°22'815.4
2017-Jun-25 00:30N 53°53' E 009°10'713.8
2017-Jun-25 00:00N 53°51' E 008°58'815.0
2017-Jun-24 23:30N 53°51' E 008°46'611.1
2017-Jun-24 23:00N 53°55' E 008°40'917.4
2017-Jun-24 22:30N 53°59' E 008°26'816.2
2017-Jun-24 22:00N 53°59' E 008°13'714.0
2017-Jun-24 21:30N 54°00' E 008°01'714.9
2017-Jun-24 21:00N 54°04' E 007°50'44116.7
2017-Jun-23 18:32N 58°50' W 002°18'019.2
2017-Jun-23 18:30N 58°51' W 002°18'1119.3
2017-Jun-23 17:56N 58°58' W 002°34'819.2
2017-Jun-23 17:30N 59°00' W 002°49'5 9.3
2017-Jun-23 17:00N 59°00' W 002°58'0 0.4
2017-Jun-23 16:29N 59°00' W 002°59'0 0.0
2017-Jun-23 15:59N 59°00' W 002°59'0 0.0
2017-Jun-23 15:29N 59°00' W 002°59'0 0.0
2017-Jun-23 14:59N 59°00' W 002°59'0 0.0
2017-Jun-23 13:59N 59°00' W 002°59'0 0.0
2017-Jun-23 13:29N 59°00' W 002°59'0 0.0
2017-Jun-23 12:59N 59°00' W 002°59'0 0.0
2017-Jun-23 12:29N 59°00' W 002°59'0 0.0
2017-Jun-23 11:59N 59°00' W 002°59'0 0.0
2017-Jun-23 11:29N 59°00' W 002°59'0 0.0
2017-Jun-23 10:59N 59°00' W 002°59'0 0.0
2017-Jun-23 10:29N 59°00' W 002°59'0 0.0
2017-Jun-23 09:59N 59°00' W 002°59'0 0.0
2017-Jun-23 09:29N 59°00' W 002°59'0 0.0
2017-Jun-23 08:59N 59°00' W 002°59'0 0.0
2017-Jun-23 08:29N 59°00' W 002°59'0 0.0
2017-Jun-23 07:59N 59°00' W 002°59'0 0.0
2017-Jun-23 07:29N 59°00' W 002°59'0 0.0
2017-Jun-23 06:56N 59°00' W 002°59'0 0.0
2017-Jun-23 06:29N 59°00' W 002°59'0 0.0
2017-Jun-23 05:59N 59°00' W 002°59'1 2.3
2017-Jun-23 05:30N 59°01' W 002°57'5 9.0
2017-Jun-23 05:00N 59°00' W 002°48'4 8.7
2017-Jun-23 04:30N 59°04' W 002°45'713.9
2017-Jun-23 04:00N 59°10' W 002°52'815.8
2017-Jun-23 03:30N 59°15' W 003°05'916.2
2017-Jun-23 02:57N 59°22' W 003°15'816.7
2017-Jun-23 02:30N 59°28' W 003°24'  

Dump ship's entire track history